Location: Natural Bridges National Monument
(37.6093°N, 109.9767°W)
Time: 19:36:07
(UTC-07:00)

Daily predictions for brighter satellites

Satellite Brightness Start Highest point End
(mag) Time Altitude Azimuth Time Altitude Azimuth Time Altitude Azimuth
NOAA 12 4.5 18:24:15 10° SE 18:29:14 43° ENE 18:34:15 10° N
METEOR-M 4.4 18:27:46 10° SE 18:32:50 46° ENE 18:37:54 10° N
Cosmos 1386 Rocket 4.5 18:28:13 10° S 18:34:14 63° E 18:40:12 10° NNE
GEOS 3 Rocket 4.1 18:31:50 10° NE 18:36:48 42° ESE 18:41:47 10° S
Cosmos 2360 Rocket 3.3 18:36:15 10° N 18:40:49 24° ENE 18:45:22 10° ESE
SL-8 R/B 4.3 18:36:07 10° WNW 18:40:51 59° SW 18:45:36 10° SE
Cosmos 1980 Rocket 3.6 18:36:21 10° NW 18:41:44 44° WSW 18:47:06 10° S
Helios 1B rocket 4.4 18:44:10 10° E 18:44:21 10° E 18:44:50 10° E
Cosmos 1975 Rocket 3.6 18:40:05 10° NNW 18:44:22 62° W 18:48:37 10° S
Cosmos 1633 3.6 18:42:20 10° SSE 18:45:23 25° E 18:48:27 10° NE
SKYMED 2 4.3 18:41:49 10° N 18:46:05 58° WNW 18:50:19 10° SSW
FREGAT/IRIS 3.1 18:46:14 10° SE 18:49:07 38° ENE 18:52:02 10° N
ALOS 2.7 18:53:25 10° SE 18:57:45 39° ENE 19:02:04 10° N
Cosmos 1833 4.3 18:56:22 10° S 19:01:55 55° ESE 19:07:27 10° NNE
Cosmos 1536 Rocket 3.6 18:58:50 10° N 19:03:16 61° E 19:07:41 10° SSE
ATLAS 2A CENTAUR R/B 3.4 19:01:33 10° SSW 19:03:23 15° SSE 19:06:37 10° SE
Cosmos 1818 3.7 19:02:25 10° SSW 19:07:51 81° WNW 19:13:21 10° NNE
SJ-6B 2.7 19:04:25 10° SSE 19:08:27 78° ENE 19:12:25 10° N
BREEZE-M DEB (TANK) 3.4 19:08:01 10° NNW 19:10:20 26° NE 19:12:05 20° ENE
SL-16 R/B 2.5 19:09:26 10° NNW 19:15:05 69° WSW 19:20:42 10° S
Cosmos 1023 Rocket 4.4 19:11:05 10° S 19:16:03 58° ESE 19:21:05 10° NNE
Resurs 01 Rocket 1.9 19:12:02 10° SE 19:16:14 45° ENE 19:20:27 10° N
Cosmos 1340 2.6 19:13:15 10° N 19:17:01 60° E 19:20:44 10° SSE
FengYun 1-2 T 4.2 19:11:42 10° SSE 19:17:04 61° ENE 19:22:30 10° N
TSX-5 3.4 19:15:11 10° SSW 19:18:24 73° WNW 19:21:36 10° NNE
Cosmos 407 Rocket 4.4 19:15:45 10° SW 19:20:49 51° WNW 19:26:00 10° N
DNEPR-1 R/B 3.8 19:16:50 10° NW 19:21:01 67° WSW 19:25:18 10° SSE
Cosmos 1238 Rocket 2.0 19:19:47 10° N 19:22:44 56° E 19:24:54 16° SSE
Cosmos 676 Rocket 4.2 19:17:50 10° SSW 19:22:59 72° WNW 19:28:12 10° NNE
Gbstr 26 Del rocket 2.6 19:21:26 10° SW 19:25:12 60° SE 19:26:34 35° ENE
Tiangong 2 0.9 19:22:46 10° WNW 19:25:51 88° NE 19:26:33 50° ESE
Meteor 1-19 Rocket 4.2 19:20:14 10° N 19:25:51 62° E 19:31:33 10° SSE
DELTA 2 R/B (1) 3.5 19:20:44 10° WNW 19:26:23 85° NNE 19:29:26 28° E
BREEZE-M DEB (TANK) 3.1 19:22:26 10° NW 19:29:32 77° SW 19:30:57 30° SE
Cosmos 1300 Rocket 3.5 19:28:03 10° S 19:32:27 87° W 19:36:54 10° N
Cosmos 2322 Rocket 3.3 19:27:31 10° NW 19:32:51 46° WSW 19:38:10 10° S
Cosmos 1536 2.8 19:29:37 10° S 19:33:31 54° E 19:37:25 10° NNE
Cosmos 2181 Rocket 3.9 19:27:44 10° N 19:34:01 84° E 19:40:21 10° S
CZ-2D R/B 3.3 19:38:26 50° E 19:38:39 51° ENE 19:42:21 10° N
Resurs 1-3 3.5 19:34:24 10° SSE 19:38:44 69° ENE 19:43:07 10° N
Meteor 1-13 Rocket 4.2 19:34:52 10° N 19:40:27 85° W 19:46:05 10° S
Cosmos 1140 Rocket 3.6 19:40:35 10° SSW 19:45:42 74° WNW 19:50:52 10° NNE
Cosmos 1461 4.2 19:41:56 10° NW 19:45:43 39° WSW 19:49:34 10° S
Cosmos 2322 3.6 19:40:09 10° NNW 19:45:53 73° ENE 19:49:34 23° SSE
FENGYUN 3A 3.9 19:40:38 10° S 19:46:01 72° WSW 19:51:27 10° NNW
ATLAS CENTAUR R/B 3.5 19:43:03 10° SSW 19:45:58 21° SSE 19:45:58 21° SSE
H-2A R/B 2.6 19:45:20 20° S 19:47:46 85° WSW 19:51:31 10° NNW
Cosmos 2074 Rocket 3.9 19:44:19 10° S 19:50:29 66° E 19:56:42 10° NNE
Cosmos 2184 Rocket 3.9 19:45:02 10° S 19:51:16 65° E 19:57:29 10° NNE
Meteor 1-23 Rocket 4.2 19:46:25 10° N 19:52:10 60° E 19:55:23 26° SSE
Cosmos 2208 Rocket 4.2 19:47:09 10° N 19:52:28 51° ENE 19:53:07 48° E
SAR-Lupe-4 4.1 19:55:00 47° N 19:55:00 47° N 19:57:39 10° N
Spot 2 Rocket 3.6 19:49:49 10° S 19:54:50 73° WSW 19:59:55 10° NNW
Helios 1A 3.0 19:58:08 62° NNE 19:58:08 62° NNE 20:01:47 10° N
Cosmos 614 Rocket 4.0 19:52:49 10° SSW 19:57:54 76° WNW 20:02:59 10° NNE
COSMOS 2428 2.9 19:53:29 10° N 19:58:59 48° ENE 19:59:03 48° ENE
Cosmos 2237 4.2 19:53:52 10° NNW 19:59:33 62° ENE 20:00:37 52° ESE
Meteor 2-4 Rocket 3.5 19:54:08 10° N 19:59:43 87° E 20:04:57 11° S
Okean 1 Rocket 3.9 19:59:10 10° SSW 20:03:32 51° W 20:07:55 10° N
Cosmos 1850 Rocket 4.1 19:59:29 10° SSW 20:04:47 80° WNW 20:10:08 10° NNE
GPS 2-04 Rocket1 4.0 20:02:16 10° SW 20:05:18 33° SSW 20:05:18 33° SSW
Cosmos 2237 Rocket 4.1 20:04:02 10° N 20:05:44 16° NNE 20:05:44 16° NNE
Envisat 4.2 20:13:16 30° NNE 20:13:16 30° NNE 20:15:59 10° N
USA 229 DEB 4.0 20:12:39 10° NNW 20:19:35 51° NE 20:19:44 51° NE
USA 229 4.0 20:12:45 10° NNW 20:19:41 51° NE 20:19:48 51° NE
Cosmos 2285 Rocket 4.0 20:13:27 10° N 20:19:33 60° NE 20:19:33 60° NE
Helios 1B rocket 3.2 20:20:32 50° WSW 20:20:32 50° WSW 20:24:01 10° SSW
Cosmos 2219 3.3 20:14:26 10° SSW 20:20:10 78° WNW 20:23:09 30° NNE
Okean 1-7 Rocket 4.5 20:20:05 10° NNW 20:24:27 48° W 20:25:47 36° SW
Cosmos 2360 Rocket 3.2 20:19:38 10° NW 20:24:59 45° WSW 20:28:57 18° S
Cosmos 2219 Rocket 3.4 20:22:52 10° N 20:25:54 30° N 20:25:54 30° N
Cosmos 1025 Rocket 4.4 20:29:36 10° NNW 20:32:29 36° NW 20:32:29 36° NW
Cosmos 2333 Rocket 3.8 20:48:38 10° NNW 20:51:05 26° N 20:51:05 26° N
BREEZE-M DEB (TANK) 4.4 20:53:16 10° NW 20:56:45 69° NW 20:56:45 69° NW
